Location: Newark
(33.9035°S, 18.4112°E)
Time: 16:06:29
(UTC+00:00)

STARLINK-1109 - Pass Details

Date: 22 January 2020
Orbit: 349 x 351 km, 53.0° (Epoch: 18 February)

Event Time Altitude Azimuth Distance (km) Brightness Sun altitude
Rises 10:52:07 0° 234° (SW) 2,183 6.6 76.0°
Reaches altitude 10° 10:54:16 10° 244° (WSW) 1,332 5.7 76.0°
Drops below altitude 10° 10:59:37 10° 15° (NNE) 1,315 5.9 76.1°
Enters shadow 11:27:19 -57° 43° (NE) 11,031 9.7 74.6°
Exits shadow 12:03:37 -52° 210° (SSW) 10,468 9.6 69.8°
